Simultaneous Nadir Overpasses (SNOs) Predictions

Prediction of SNOs between GOES-15 and METOP-C Satellite Orbit:

Table of predicted SNOs for the next 14.0 days since TLE Epoch: 11/16/2024
Index Date Time (GOES-15) GOES-15 Lat,Lon METOP-C Lat,Lon Distance(km) Time Diff (sec)
1 11/16/2024 05:12:43 -0.22, 61.54 -0.94, 64.80 372.04 80
2 11/17/2024 17:31:45 0.21, 61.68 -0.11, 60.21 167.70 80
3 11/18/2024 17:08:26 0.21, 61.71 1.00, 65.20 398.39 80
4 11/20/2024 05:27:19 -0.20, 61.62 -0.01, 60.63 112.53 80
5 11/21/2024 05:09:20 -0.20, 61.64 -1.07, 65.63 454.60 80
6 11/22/2024 17:28:21 0.19, 61.78 0.04, 61.04 84.12 80
7 11/23/2024 17:05:02 0.19, 61.80 1.11, 66.04 482.01 80
8 11/25/2024 05:23:55 -0.18, 61.73 -0.13, 61.47 29.78 80
9 11/27/2024 17:24:56 0.18, 61.88 0.15, 61.88 2.91 80
